This is the latest recevied weather packets stored in our database for station/object AD5L. If no packets are shown the sender has not sent any weather packets the latest 1 day(s).
| Time | Temp. | Humidity | Pressure | Rain* | Wind** | Luminosity | Snow |
|---|---|---|---|---|---|---|---|
| 1778042030 | 24.44° C | 92% | 1008.6 hPa | 0 mm | 1.79 m/s, 108° | - | - |
| 1778041421 | 24.44° C | 91% | 1008.4 hPa | 0 mm | 0.89 m/s, 157° | - | - |
| 1778040803 | 24.44° C | 91% | 1008.4 hPa | 0 mm | 1.34 m/s, 164° | - | - |
| 1778040224 | 24.44° C | 91% | 1008.5 hPa | 0 mm | 0.45 m/s, 160° | - | - |
| 1778039605 | 25° C | 90% | 1008.3 hPa | 0 mm | 0.45 m/s, 163° | - | - |
| 1778039017 | 25° C | 89% | 1008.1 hPa | 0 mm | 0.45 m/s, 142° | - | - |
| 1778038408 | 25° C | 88% | 1007.9 hPa | 0 mm | 0.89 m/s, 125° | - | - |
| 1778037819 | 25.56° C | 87% | 1008 hPa | 0 mm | 0.89 m/s, 127° | - | - |
| 1778037209 | 25.56° C | 87% | 1007.8 hPa | 0 mm | 1.34 m/s, 179° | - | - |
| 1778036620 | 25.56° C | 86% | 1007.6 hPa | 0 mm | 1.34 m/s, 150° | - | - |
| 1778036010 | 25.56° C | 86% | 1007.5 hPa | 0 mm | 0.89 m/s, 134° | - | - |
| 1778035420 | 25.56° C | 86% | 1007.5 hPa | 0 mm | 0.45 m/s, 175° | - | - |
| 1778034811 | 26.11° C | 85% | 1007.3 hPa | 0 mm | 0.45 m/s, 153° | - | - |
| 1778034202 | 26.11° C | 85% | 1007 hPa | 0 mm | 0.45 m/s, 161° | - | - |
| 1778033614 | 26.11° C | 85% | 1006.9 hPa | 0 mm | 0.45 m/s, 134° | - | - |
| 1778033005 | 26.11° C | 84% | 1006.7 hPa | 0 mm | 0.45 m/s, 139° | - | - |
| 1778032417 | 26.11° C | 84% | 1006.8 hPa | 0 mm | 0 m/s | - | - |
| 1778031810 | 26.67° C | 83% | 1006.6 hPa | 0 mm | 0 m/s | - | - |
| 1778031219 | 26.67° C | 82% | 1006.5 hPa | 0 mm | 0.45 m/s, 103° | - | - |
| 1778030626 | 26.67° C | 81% | 1006.4 hPa | 0 mm | 0.89 m/s, 131° | - | - |
| 1778030005 | 27.22° C | 80% | 1006.3 hPa | 0 mm | 0.89 m/s, 151° | - | - |
| 1778029424 | 27.78° C | 78% | 1006.3 hPa | 0 mm | 1.34 m/s, 126° | - | - |
| 1778028806 | 27.78° C | 77% | 1006.3 hPa | 0 mm | 1.34 m/s, 146° | - | - |
| 1778028217 | 28.33° C | 76% | 1006.3 hPa | 0 mm | 1.79 m/s, 150° | - | - |
| 1778027605 | 28.33° C | 76% | 1006.2 hPa | 0 mm | 1.34 m/s, 205° | - | - |
* Rain latest hour (hover to see other rain measurements)
** Current wind speed in m/s (hover to see current wind gust speed)